Weather in Kulagino

Russia / Nizhny Novgorod Oblast'     56°45′04″N   44°15′44″E
temp.,
°C
wind,
m/s
gust,
m/s
humid.,
%
clouds,
%
prec.,
mm/h
press.,
hPa
HPBL,
m
17 october, sun
sun1700:00+8sw51167100 0.0 10121091
03:00+6sw51087100 1.1 10121045
06:00+5sw499563 0.1 1012531
09:00+7sw411845 0.1 1012673
12:00+10sw511635 0.0 10111330
15:00+10sw51063100 0.0 10111320
18:00+8sw4117585 0.0 1011691
21:00+7sw41082100 0.0 1011592
18 october, mon
mon1800:00+7sw3978100 0.1 1010590
03:00+7sw4980100 0.1 1010557
06:00+5wsw388489 0.0 1009452
09:00+7ssw397790 0.0 1009598
12:00+9sw476895 0.3 10071079
15:00+8wsw4874100 1.1 10061060
18:00+6wsw5989100 1.3 10061261
21:00+4w4785100 2.1 1008680
19 october, tue
tue1900:00+2sw37895 0.0 1008262
03:00+1wsw389621 0.0 1009323
06:00+2sw2692100 0.0 1009272
09:00+3w358699 0.1 1010376
12:00+4w347287 0.1 1011800
15:00+4w358199 0.3 1011594
18:00+1nnw378967 0.4 1013368
21:00+2nw2679100 0.4 1013454
20 october, wed
wed2000:00+2nw2587100 0.1 1014294
03:00+1nw3694100 0.3 1015394
06:000nw269010 0.1 1016284
09:00+1nw368335 0.1 1017483
12:00+2nw456479 0.1 10181047
15:00+2nw456381 0.1 10181172
18:000nw258382 0.0 1020327
21:00+1wnw2474100 0.0 1019318
21 october, thu
thu2100:00−1ssw2582100 0.0 1019146
03:00−2ssw3987100 0.0 1018318
06:00−2s51371100 0.0 1015539
09:000s61579100 0.1 1013567
12:00+2ssw61779100 0.9 1009839
15:00+4ssw71582100 1.8 1006796
18:00+5ssw61677100 1.3 1003700
21:00+6ssw71873100 1.3 1001837